Location: Mantua Corners
(41.3103°N, 81.2212°W)
Time: 13:13:27
(UTC+00:00)

Tiangong - Visible Passes

Search period start: 13 October 2024 00:00
Search period end: 23 October 2024 00:00
Orbit: 372 x 377 km, 41.5° (Epoch: 12 October)

Date Brightness Start Highest point End Pass type
(mag) Time Alt. Az. Time Alt. Az. Time Alt. Az.
16 Oct 1.0 10:21:00 10° SSE 10:21:18 10° SE 10:21:37 10° SE visible
17 Oct -0.3 10:51:32 10° SW 10:54:12 26° SSE 10:56:52 10° E visible
18 Oct 0.3 09:50:31 15° SSE 09:51:02 16° SSE 09:52:59 10° ESE visible
19 Oct -1.0 10:22:25 23° SSW 10:23:51 37° SSE 10:26:46 10° E visible
20 Oct 0.9 09:22:10 15° ESE 09:22:10 15° ESE 09:23:00 10° E visible
20 Oct -2.1 10:54:09 13° WSW 10:56:48 75° S 10:59:53 10° E visible
21 Oct -1.2 09:53:45 45° SE 09:53:45 45° SE 09:56:16 10° E visible
22 Oct -2.3 10:25:11 43° W 10:26:05 88° SSE 10:29:10 10° E visible
